Lexington Weather

Lexington, Massachusetts, USA

67°F
9/23/2021 4:14am 
  • Lexington Conditions: Overcast
  • Temperature: 66.7°F / 19.3°CWarmer 0.5°F than last hour.
  • Dew Point: 65.5°FIncreased 0.6°Fsince last hour.
  • Relative Humidity: 96
  • Wind: Calm, 10-min avg: Calm, gust: 2 mph
  • Barometer: 30.03 in Steady
  • Visibility: 10 miles
  • Rain Today: 0.00 in
  •   

Regional Weather Roundup
for Boston / Norton, MA

        
000
ASUS41 KBOX 220804
RWRBOX

REGIONAL WEATHER ROUNDUP
NATIONAL WEATHER SERVICE BOSTON/NORTON MA
400 AM EDT WED SEP 22 2021

NOTE:  "FAIR" INDICATES FEW OR NO CLOUDS BELOW 12,000 FEET WITH NO 
SIGNIFICANT WEATHER AND/OR OBSTRUCTIONS TO VISIBILITY.

MAZALL-220900-
EASTERN MASSACHUSETTS
  
CITY           SKY/WX    TMP DP  RH WIND       PRES   REMARKS
BOSTON         CLOUDY    67  64  90 E5        30.25F                  
BEVERLY        CLOUDY    66  65  96 CALM      30.25S                  
LAWRENCE       CLOUDY    67  66  97 SE5       30.26F                  
BEDFORD        CLOUDY    69  67  93 S8        30.23F                  
BLUE HILL      NOT AVBL                                               
NORWOOD        CLOUDY    68  65  90 SE3       30.25F                  
MARSHFIELD     CLOUDY    66  64  94 CALM      30.25F                  
PLYMOUTH       PTCLDY    66  64  93 CALM      30.26F                  
TAUNTON        MOCLDY    67  65  93 SE5       30.25F                  
NEW BEDFORD    MOCLDY    69  66  90 SE7       30.25F                  
$$

MAZALL-220900-
CAPE COD AND THE ISLANDS
  
CITY           SKY/WX    TMP DP  RH WIND       PRES   REMARKS
FALMOUTH       CLEAR     66  64  94 SE8       30.26F                  
HYANNIS        CLEAR     68  65  90 SE6       30.25F                  
CHATHAM        CLEAR     65  61  87 SE6       30.28F                  
PROVINCETOWN   CLEAR     66  64  93 S8        30.27F                  
NANTUCKET      MOCLDY    68  64  87 SE9       30.26F                  
MARTHAS VNYRD  CLEAR     68  65  90 SE9       30.25F                  
$$
 
MAZALL-220900-
CENTRAL AND WESTERN MASSACHUSETTS
  
CITY           SKY/WX    TMP DP  RH WIND       PRES   REMARKS
WORCESTER      FOG       65  65 100 SE7       30.26F VSB 3/4          
FITCHBURG      CLOUDY    64  63  96 S3        30.25F FOG              
ORANGE         CLOUDY    61  60  97 CALM      30.24F                  
SPRINGFIELD    CLOUDY    64  64 100 CALM      30.21F                  
WESTFIELD      CLOUDY    63  63 100 CALM      30.22S                  
NORTH ADAMS    LGT RAIN  63  61  93 E7        30.20F FOG              
PITTSFIELD     LGT RAIN  61  60  97 CALM      30.21F FOG              
$$
 
RIZALL-220900-
RHODE ISLAND
  
CITY           SKY/WX    TMP DP  RH WIND       PRES   REMARKS
PROVIDENCE     CLOUDY    69  68  96 SE6       30.25F                  
NEWPORT        MOCLDY    68  67  96 SE6       30.24F                  
BLOCK ISLAND   CLOUDY    69  66  90 SE7       30.24F                  
SMITHFIELD     CLOUDY    67  67 100 VRB3      30.25F                  
WESTERLY       CLOUDY    68  68 100 E5        30.23F                  
$$
 
CTZALL-220900-
CONNECTICUT
  
CITY           SKY/WX    TMP DP  RH WIND       PRES   REMARKS
BRADLEY INTL   CLOUDY    64  63  96 CALM      30.22F                  
HARTFORD       CLOUDY    67  63  87 CALM      30.21F                  
BRIDGEPORT     MOCLDY    72  69  90 SE9       30.19F                  
DANBURY        CLOUDY    71  67  87 SE3       30.21F                  
GROTON         CLOUDY    70  68  93 E8        30.21F                  
NEW HAVEN      CLOUDY    73  71  93 SE5       30.20F                  
CHESTER        FOG       68  68 100 CALM      30.23S VSB 1/4          
MERIDEN        CLOUDY    65  62  90 CALM      30.21F                  
WILLIMANTIC    CLOUDY    63  62  97 CALM      30.23F                  
OXFORD         CLOUDY    68  67  96 SE7       30.22F                  
$$

MEZ002-015-021-024-NHZ003-005-008-011-012-014-VTZ005-008-220900-
NORTHERN NEW ENGLAND
  
CITY           SKY/WX    TMP DP  RH WIND       PRES   REMARKS
PORTLAND ME    CLOUDY    63  63 100 CALM      30.26S                  
BANGOR ME      CLOUDY    61  60  97 CALM      30.28F                  
CONCORD NH     CLOUDY    61  60  97 CALM      30.24F FOG              
MANCHESTER NH  FOG       64  62  93 CALM      30.23F VSB 1/2          
NASHUA NH      CLOUDY    62  62 100 NW3       30.25F FOG              
PORTSMOUTH NH  CLOUDY    63  63 100 SE1       30.27F FOG              
JAFFREY NH     CLOUDY    62  61  96 CALM      30.25F                  
KEENE NH       CLOUDY    60  58  92 CALM      30.23F                  
BURLINGTON VT  MOCLDY    63  57  81 S5        30.16F                  
MT. WASHINGTON FOG       45  45 100 SW37G49     N/A  VSB 0            
$$

NYZ052-076-220900-
EASTERN NEW YORK
  
CITY           SKY/WX    TMP DP  RH WIND       PRES   REMARKS
ALBANY         CLOUDY    63  61  93 SE3       30.17F                  
NEW YORK CITY  CLOUDY    73  69  87 SE6       30.16F                  
$$
 
ANZALL-220900-
MARINE OBSERVATIONS
  
STATION/POSITION TIME  TEMP    WIND        PRES    VSBY  WAVE
                       AIR SEA DIR/SP/G                  HT/PER
                 (UTC) (F)     (DEG/KT/KT) (MB)    (MI)  (FT/S)
BOSTON BUOY      0740      65  150/  8/ 10 1024.7F
BUZZARDS BAY     0700          140/ 15/ 17 1025.2F
NANTUCKET SOUND  0740   71 71  140/ 14/ 17 1024.6F
MASS BAY-STELLWA 0704   67     170/ 10/ 12 1024.4F  1 7/8  4/11
ISLE OF SHOALS   0700   66     170/ 11/ 12 1024.4F
S OF BLOCK IS    0726      70                N/A           4/11
$$

......................KEY.........................
  SKY/WX - SKY CONDITION/PRESENT WEATHER
  TMP    - TEMPERATURE IN FAHRENHEIT
  DWPT   - DEWPOINT IN FAHRENHEIT
  RH     - RELATIVE HUMIDITY IN PERCENT
  WIND   - DIRECTION AND SPEED IN MPH
  PRES   - MEAN SEA LEVEL PRESSURE IN INCHES OF HG
  WCI    - WIND CHILL INDEX
  VSB    - VISIBILITY IN MILES
  HX     - HEAT INDEX
  TC     - TEMPERATURE IN CELSIUS
  VRB    - VARIABLE WIND DIRECTION
  N/A    - NOT AVAILABLE
  
      

Other recent Regional Weather Roundups

Thu Sep 23, 3:04am

Thu Sep 23, 2:04am

Thu Sep 23, 1:04am

Thu Sep 23, 12:04am

Wed Sep 22, 11:04pm

Wed Sep 22, 10:04pm

Wed Sep 22, 9:04pm

Wed Sep 22, 8:04pm

Wed Sep 22, 7:04pm

Wed Sep 22, 6:04pm

Wed Sep 22, 5:04pm

Wed Sep 22, 4:04pm

Wed Sep 22, 3:04pm

Wed Sep 22, 2:04pm

Wed Sep 22, 1:04pm

Wed Sep 22, 12:05pm

Wed Sep 22, 11:04am

Wed Sep 22, 10:04am

Wed Sep 22, 9:04am

Wed Sep 22, 8:04am

Wed Sep 22, 7:04am

Wed Sep 22, 6:04am

Wed Sep 22, 5:04am

Wed Sep 22, 3:04am

Wed Sep 22, 2:04am

Wed Sep 22, 1:04am

Wed Sep 22, 12:04am

Tue Sep 21, 11:04pm

Tue Sep 21, 10:04pm

Tue Sep 21, 9:04pm

Tue Sep 21, 8:04pm

Tue Sep 21, 7:04pm

Tue Sep 21, 6:04pm

Tue Sep 21, 5:04pm

Tue Sep 21, 4:04pm

Tue Sep 21, 3:04pm

Tue Sep 21, 2:04pm

Tue Sep 21, 1:04pm

Tue Sep 21, 12:04pm

Tue Sep 21, 11:04am

Tue Sep 21, 10:04am

Tue Sep 21, 9:04am

Tue Sep 21, 8:04am

Tue Sep 21, 7:04am

Tue Sep 21, 6:04am

Tue Sep 21, 5:04am

Tue Sep 21, 4:04am

Tue Sep 21, 3:04am

Tue Sep 21, 2:04am

Tue Sep 21, 1:04am

Tue Sep 21, 12:04am

Mon Sep 20, 11:04pm

Mon Sep 20, 10:04pm

Mon Sep 20, 9:04pm

Mon Sep 20, 8:04pm

Mon Sep 20, 7:04pm

Mon Sep 20, 6:04pm

Mon Sep 20, 5:04pm

Mon Sep 20, 4:04pm

Mon Sep 20, 3:04pm

Mon Sep 20, 2:04pm

Mon Sep 20, 1:04pm

Mon Sep 20, 12:04pm

Mon Sep 20, 11:04am

Mon Sep 20, 10:04am

Mon Sep 20, 9:04am

Mon Sep 20, 7:04am

Mon Sep 20, 6:04am

Mon Sep 20, 5:04am

Mon Sep 20, 4:04am

Mon Sep 20, 3:04am

Mon Sep 20, 2:04am

Mon Sep 20, 1:04am

Mon Sep 20, 12:04am

Sun Sep 19, 11:04pm

Sun Sep 19, 10:04pm

Sun Sep 19, 9:04pm

Sun Sep 19, 8:04pm

Sun Sep 19, 7:04pm

Sun Sep 19, 6:04pm

Sun Sep 19, 5:04pm

Sun Sep 19, 4:04pm

Sun Sep 19, 3:04pm

Sun Sep 19, 2:05pm

Sun Sep 19, 1:04pm

Sun Sep 19, 12:04pm

Sun Sep 19, 11:04am

Sun Sep 19, 10:05am

Sun Sep 19, 9:04am

Sun Sep 19, 8:04am

Sun Sep 19, 7:04am

Sun Sep 19, 6:04am

Sun Sep 19, 5:04am

Sun Sep 19, 4:04am

Sun Sep 19, 3:04am

Sun Sep 19, 2:04am

Sun Sep 19, 1:04am

Sun Sep 19, 12:04am

Sat Sep 18, 11:05pm

Sat Sep 18, 10:04pm

Sat Sep 18, 9:04pm

Sat Sep 18, 8:04pm

Sat Sep 18, 7:04pm

Sat Sep 18, 6:04pm

Sat Sep 18, 5:04pm

Sat Sep 18, 4:04pm

Sat Sep 18, 3:04pm

Sat Sep 18, 2:04pm

Sat Sep 18, 1:04pm

Sat Sep 18, 12:04pm

Sat Sep 18, 11:04am

Sat Sep 18, 10:04am

Sat Sep 18, 9:04am

Sat Sep 18, 8:04am

Sat Sep 18, 7:04am

Sat Sep 18, 6:04am

Sat Sep 18, 5:04am

Sat Sep 18, 4:04am

Sat Sep 18, 3:04am

Sat Sep 18, 2:04am

Sat Sep 18, 1:04am

Sat Sep 18, 12:04am

Fri Sep 17, 11:04pm

Fri Sep 17, 10:04pm

Fri Sep 17, 9:04pm

Fri Sep 17, 8:04pm

Fri Sep 17, 7:04pm

Fri Sep 17, 6:04pm

Fri Sep 17, 5:04pm

Fri Sep 17, 4:04pm

Fri Sep 17, 3:04pm

Fri Sep 17, 2:04pm

Fri Sep 17, 1:04pm

Fri Sep 17, 12:05pm

Fri Sep 17, 11:04am

Fri Sep 17, 10:04am

Fri Sep 17, 9:04am

Fri Sep 17, 8:04am

Fri Sep 17, 7:04am

Fri Sep 17, 6:04am

Fri Sep 17, 5:04am

Fri Sep 17, 4:04am

Fri Sep 17, 3:04am

Fri Sep 17, 2:04am

Fri Sep 17, 1:04am

Fri Sep 17, 12:04am

Thu Sep 16, 11:04pm

Thu Sep 16, 10:04pm

Thu Sep 16, 9:04pm

Thu Sep 16, 8:04pm

Thu Sep 16, 7:04pm

Thu Sep 16, 6:04pm

Thu Sep 16, 5:04pm

Thu Sep 16, 4:04pm

Thu Sep 16, 3:04pm

Thu Sep 16, 2:04pm

Thu Sep 16, 1:05pm

Thu Sep 16, 12:04pm

Thu Sep 16, 11:05am

Thu Sep 16, 10:05am

Thu Sep 16, 9:04am

Thu Sep 16, 8:04am

Thu Sep 16, 7:04am

Thu Sep 16, 6:04am

Thu Sep 16, 5:04am

Thu Sep 16, 4:04am

Meta data:

ID: e732d909-0856-425b-8d92-46df3313945a
Link: https://api.weather.gov/products/e732d909-0856-425b-8d92-46df3313945a